AirNav   Pilot Hours Calculator
 
 989 users online  

3TA5 Blanco Landing Airport
Blanco, Texas, USA

GOING TO BLANCO?


FAA INFORMATION EFFECTIVE 28 JANUARY 2021

Location

FAA Identifier: 3TA5
Lat/Long: 30-07-20.8800N 098-22-29.2200W
30-07.348000N 098-22.487000W
30.1224667,-98.3747833
(estimated)
Elevation: 1460 ft. / 445 m (estimated)
Variation: 07E (1985)
From city: 3 miles NE of BLANCO, TX
Time zone: UTC -6 (UTC -5 during Daylight Saving Time)
Zip code: 78606

Airport Operations

Airport use: Private use. Permission required prior to landing
Activation date: 03/1981
Control tower: no
ARTCC: HOUSTON CENTER
FSS: SAN ANGELO FLIGHT SERVICE STATION
Attendance: UNATNDD
Wind indicator: yes
Segmented circle: no

Airport Communications

CTAF: 122.9

Nearby radio navigation aids

VOR radial/distance  VOR name  Freq  Var
STVr098/17.9STONEWALL VORTAC113.8008E
SATr001/29.1SAN ANTONIO VORTAC116.8008E
RNDr348/36.5RANDOLPH VORTAC112.3005E

Airport Services

Runway Information

Runway 1/19

Dimensions: 3450 x 27 ft. / 1052 x 8 m
Surface: asphalt
RUNWAY 1  RUNWAY 19
Traffic pattern: leftleft

Airport Ownership and Management from official FAA records

Ownership: Privately-owned
Owner: THE LANDING P.O.A.
3238 HWY 281 N
BLANCO, TX 78606
Phone (510) 910-3269
Manager: ROBERT GARCIA JR
3238 HWY 281 N
BLANCO, TX 78606
Phone (915) 525-7792
OTR (512) 461-5158

Airport Operational Statistics

Aircraft based on the field: 9
Single engine airplanes: 8
Helicopters: 1
    

Additional Remarks

FOR CD CTC HOUSTON ARTCC AT 281-230-5622.
RCMD OVER-FLY FLD TO INSURE RWY CLEAR OF WILDLIFE & MAINT CREWS AND TO CHECK WIND DRCTN FOR LNDG.
TALL TREES AT SOUTH AER TO INSURE PROPER CLNC.

Instrument Procedures

There are no published instrument procedures at 3TA5.

Some nearby airports with instrument procedures:

3R9 - Lakeway Airpark (24 nm NE)
T82 - Gillespie County Airport (29 nm W)
5C1 - Boerne Stage Field Airport (29 nm SW)
KHYI - San Marcos Regional Airport (30 nm SE)
KBAZ - New Braunfels Regional Airport (30 nm SE)
 
Loc | Ops | Rwys | IFR | FBO | Links
Com | Nav | Svcs | Stats | Notes
Area around 3TA5 (Blanco Landing Airport)
 
Road maps at: MapQuest Bing Google
 
Aerial photo
WARNING: Photo may not be current or correct
Aerial photo of 3TA5 (Blanco Landing Airport)
Photo taken 18-Jul-2017
looking south.

Do you have a better or more recent aerial photo of Blanco Landing Airport that you would like to share? If so, please send us your photo.

 
Sectional chart

 
Airport distance calculator
Flying to Blanco Landing Airport? Find the distance to fly.

From to 3TA5

Sunrise and sunset
Times for 24-Feb-2021
 Local
(UTC-6)
 Zulu
(UTC)
Morning civil twilight06:4212:42
Sunrise07:0613:06
Sunset18:2800:28
Evening civil twilight18:5200:52

Current date and time
Zulu (UTC)  25-Feb-2021 01:13:03
Local (UTC-6)  24-Feb-2021 19:13:03
 
METAR
KDZB 
24nm N 
250055Z AUTO 00000KT 10SM CLR 21/04 A3003 RMK AO2 T02120042
KT82 
29nm W 
250055Z AUTO 03004KT 10SM CLR 21/06 A3002 RMK AO2 T02070064
K5C1 
29nm SW 
250055Z AUTO 14004KT 10SM CLR 20/13 A3001 RMK AO1
KBAZ 
30nm SE 
250051Z AUTO 13007KT 10SM CLR 21/15 A2998 RMK AO2 SLP146 T02060150
KHYI 
30nm SE 
250056Z 16007KT 10SM CLR 22/17 A3000 RMK AO2 SLP152 T02170172
KRYW 
31nm NE 
250055Z AUTO 02006KT 10SM CLR 20/11 A3003 RMK AO2 T02010109
KSAT 
36nm S 
250051Z 11006KT 10SM FEW040 FEW250 21/15 A2999 RMK AO2 SLP141 T02060150
KAUS 
36nm E 
250053Z 00000KT 10SM FEW035 FEW200 21/15 A2999 RMK AO2 SLP150 T02060150
KATT 
37nm E 
250051Z AUTO 00000KT 10SM BKN055 25/14 A3001 RMK AO2 SLP152 T02500144
KRND 
37nm S 
250056Z AUTO 14004KT 10SM CLR 21/16 A2998 RMK AO2 SLP147 T02090156
TAF
KAUS 
36nm E 
241739Z 2418/2524 24009KT P6SM OVC019 FM241900 35006KT P6SM SCT040 OVC250 FM242300 02007KT P6SM SCT040 OVC250 FM250600 01007KT P6SM BKN025 FM251600 02008KT P6SM OVC014 PROB30 2521/2524 2SM -SHRA BR OVC005
NOTAMs
Click for the latest NOTAMs
NOTAMs are issued by the DoD/FAA and will open in a separate window not controlled by AirNav.

 

 
 

Would you like to see your business listed on this page?

 If your business provides an interesting product or service to pilots, flight crews, aircraft, or users of the Blanco Landing Airport, you should consider listing it here.  To start the listing process, click on the button below
 
Add a business
 

Other Pages about Blanco Landing Airport

Update a link
 
Copyright © AirNav, LLC. All rights reserved. Privacy Policy  Contact